TimeEST,TemperatureF,Dew PointF,Humidity,Sea Level PressureIn,VisibilityMPH,Wind Direction,Wind SpeedMPH,Gust SpeedMPH,PrecipitationIn,Events,Conditions,WindDirDegrees,DateUTC
12:51 AM,33.1,28.0,82,30.34,10.0,NNE,11.5,23.0,N/A,,Overcast,30,2014-02-12 05:51:00
1:51 AM,33.1,28.0,82,30.34,10.0,NNE,12.7,26.5,N/A,,Overcast,30,2014-02-12 06:51:00
2:51 AM,33.1,28.0,82,30.33,10.0,NNE,15.0,27.6,N/A,,Overcast,30,2014-02-12 07:51:00
3:51 AM,33.1,28.9,85,30.32,10.0,NNE,12.7,31.1,N/A,,Overcast,30,2014-02-12 08:51:00
4:51 AM,33.1,28.9,85,30.34,10.0,NNE,16.1,28.8,N/A,,Overcast,30,2014-02-12 09:51:00
5:51 AM,34.0,30.0,85,30.33,10.0,NNE,12.7,21.9,N/A,,Partly Cloudy,30,2014-02-12 10:51:00
6:51 AM,35.1,30.9,85,30.33,10.0,NNE,12.7,26.5,N/A,,Overcast,30,2014-02-12 11:51:00
7:51 AM,36.0,32.0,86,30.33,10.0,NE,13.8,23.0,N/A,,Overcast,40,2014-02-12 12:51:00
8:51 AM,36.0,32.0,86,30.32,10.0,NE,15.0,23.0,N/A,,Overcast,40,2014-02-12 13:51:00
9:51 AM,37.0,34.0,89,30.32,10.0,NE,12.7,23.0,0.01,Rain,Light Rain,40,2014-02-12 14:51:00
10:51 AM,37.9,35.1,89,30.31,8.0,NE,11.5,18.4,0.00,Rain,Light Rain,40,2014-02-12 15:51:00
11:51 AM,39.0,37.0,93,30.29,10.0,NE,10.4,18.4,0.01,,Overcast,40,2014-02-12 16:51:00
12:51 PM,39.9,37.0,89,30.23,10.0,NE,11.5,19.6,0.00,Rain,Light Rain,40,2014-02-12 17:51:00
1:16 PM,39.9,37.9,93,30.21,8.0,NE,10.4,21.9,0.01,Rain,Light Rain,40,2014-02-12 18:16:00
1:26 PM,39.9,37.9,93,30.21,8.0,NE,9.2,20.7,0.01,,Overcast,40,2014-02-12 18:26:00
1:39 PM,39.9,37.9,93,30.20,7.0,NE,11.5,20.7,0.01,Rain,Light Rain,40,2014-02-12 18:39:00
1:51 PM,39.9,37.9,93,30.19,8.0,NNE,11.5,21.9,0.01,Rain,Light Rain,30,2014-02-12 18:51:00
2:03 PM,39.9,37.9,93,30.18,8.0,NE,9.2,18.4,0.00,Rain,Light Rain,40,2014-02-12 19:03:00
2:51 PM,39.9,37.9,93,30.14,5.0,NE,12.7,21.9,0.02,Rain,Light Rain,40,2014-02-12 19:51:00
3:13 PM,39.9,39.0,97,30.15,5.0,NNE,11.5,19.6,0.02,Rain,Light Rain,30,2014-02-12 20:13:00
3:21 PM,39.9,39.0,97,30.13,6.0,NE,12.7,20.7,0.02,Rain,Light Rain,40,2014-02-12 20:21:00
3:51 PM,39.9,39.9,100,30.12,4.0,NE,11.5,20.7,0.05,Rain,Light Rain,40,2014-02-12 20:51:00
4:51 PM,42.1,42.1,100,30.09,4.0,NE,9.2,-,0.04,,Overcast,40,2014-02-12 21:51:00
5:23 PM,43.0,43.0,100,30.08,1.8,NNE,3.5,-,0.01,Rain,Rain,30,2014-02-12 22:23:00
5:34 PM,43.0,43.0,100,30.07,3.0,East,11.5,-,0.03,Rain,Light Rain,90,2014-02-12 22:34:00
5:51 PM,46.0,46.0,100,30.06,5.0,ENE,8.1,-,0.04,Rain,Light Rain,70,2014-02-12 22:51:00
6:51 PM,48.0,46.9,96,30.04,6.0,East,15.0,20.7,0.07,Rain,Light Rain,90,2014-02-12 23:51:00
7:51 PM,48.0,46.9,96,29.99,4.0,East,19.6,27.6,0.13,Rain,Light Rain,100,2014-02-13 00:51:00
8:51 PM,48.9,48.0,97,29.94,5.0,East,19.6,27.6,0.04,Rain,Light Rain,90,2014-02-13 01:51:00
9:51 PM,50.0,50.0,100,29.87,7.0,East,21.9,31.1,0.00,Rain,Light Rain,90,2014-02-13 02:51:00
10:11 PM,51.1,51.1,100,29.85,4.0,East,20.7,29.9,0.06,Rain,Rain,90,2014-02-13 03:11:00
10:30 PM,51.1,51.1,100,29.82,3.0,East,24.2,31.1,0.12,Rain,Light Rain,100,2014-02-13 03:30:00
10:51 PM,51.1,51.1,100,29.81,2.5,East,18.4,29.9,0.18,Rain,Heavy Rain,100,2014-02-13 03:51:00
11:49 PM,51.8,51.8,100,29.71,1.5,East,24.2,32.2,0.20,Rain,Heavy Rain,100,2014-02-13 04:49:00
11:51 PM,51.1,51.1,100,29.71,1.5,East,24.2,33.4,0.21,Rain,Heavy Rain,100,2014-02-13 04:51:00